Date,TemperatureHighF,TemperatureAvgF,TemperatureLowF,DewpointHighF,DewpointAvgF,DewpointLowF,HumidityHigh,HumidityAvg,HumidityLow,PressureMaxIn,PressureMinIn,WindSpeedMaxMPH,WindSpeedAvgMPH,GustSpeedMaxMPH,PrecipitationSumIn
2013-4-1,34,29,25,16,10,5,56,44,29,30.15,29.88,20,14,27,0.00
2013-4-2,37,30,24,14,10,5,62,45,25,30.28,30.14,17,12,23,0.00
2013-4-3,42,34,27,18,12,2,57,40,21,30.40,30.22,13,7,0,0.00
2013-4-4,56,42,31,32,23,16,57,47,34,30.22,29.92,25,15,30,0.00
2013-4-5,47,38,32,27,21,17,63,50,31,30.21,30.01,21,9,28,0.00
2013-4-6,61,46,33,49,32,16,89,58,40,30.07,29.52,28,17,36,0.01
2013-4-7,53,43,36,45,33,30,83,68,48,29.92,29.55,25,12,36,0.00
2013-4-8,56,44,36,47,40,31,98,84,72,29.95,29.57,19,11,24,0.42
2013-4-9,41,38,36,41,38,34,99,97,90,29.97,29.82,27,13,39,1.01
2013-4-10,37,34,31,35,32,29,97,93,88,30.02,29.84,26,14,36,0.79
2013-4-11,38,36,34,37,35,33,98,96,90,29.87,29.53,34,15,46,0.42
2013-4-12,39,35,33,35,31,25,99,85,68,29.76,29.48,20,9,25,0.06
2013-4-13,36,34,32,27,24,20,83,66,55,29.95,29.74,22,12,28,0.00
2013-4-14,52,38,30,44,32,20,95,78,54,29.95,29.51,29,14,35,0.05
2013-4-15,59,47,40,49,40,29,99,78,33,29.93,29.55,32,14,42,0.49
2013-4-16,50,42,34,34,29,27,77,61,41,30.25,29.93,16,10,22,0.00
2013-4-17,44,40,38,41,36,30,98,83,60,30.27,29.79,26,12,36,0.46
2013-4-18,58,45,36,59,44,30,100,95,76,29.85,29.29,35,14,48,0.75
2013-4-19,37,34,31,31,25,19,87,68,51,29.87,29.33,31,21,40,0.00
2013-4-20,42,34,27,20,14,8,69,45,25,30.33,29.88,22,9,28,0.00
2013-4-21,51,41,32,33,26,20,70,55,37,30.44,30.21,26,17,36,0.00
2013-4-22,64,53,43,38,34,31,64,50,31,30.22,29.96,22,14,29,0.00
2013-4-23,57,43,37,46,34,26,88,71,49,29.97,29.86,24,14,35,0.00
2013-4-24,51,41,33,27,21,15,67,46,25,30.00,29.93,22,11,34,0.00
2013-4-25,49,43,36,34,28,22,86,56,34,30.24,29.93,21,12,32,0.01
2013-4-26,67,54,40,44,34,21,67,46,36,30.24,30.09,34,19,42,0.00
2013-4-27,62,56,46,46,43,41,91,64,46,30.20,29.98,18,9,23,0.00
2013-4-28,69,58,47,48,42,37,78,54,35,29.98,29.77,13,5,0,0.00
2013-4-29,69,61,54,56,51,47,81,67,50,29.83,29.68,22,14,28,0.00
2013-4-30,85,73,60,58,51,41,90,52,21,29.87,29.65,35,20,43,0.02